Погода в Линвуде

США     47°49′16″N   122°18′49″W
темп.,
°C
ветер,
м/с
пор.,
м/с
влажн.,
%
обл.,
%
осадки,
мм/ч
давл.,
гПа
погр.,
м
4 июля, пн
пн423:00+12вюв1196100 2.1 101420
02:00+12ююв119797 0.0 101425
05:00+9ююв249980 0.0 101495
08:00+12ю239199 0.0 1015331
11:00+18ююз2258100 0.0 10141107
14:00+23з234140 0.0 10131896
17:00+19сз3556100 0.0 1013536
20:00+16ссз3770100 0.0 1013275
5 июля, вт
вт523:00+12св129195 0.0 101445
02:00+10ссв119647 0.0 101425
05:00+10св11979 0.0 101415
08:00+15с2376100 0.0 1014302
11:00+21ссз215395 0.0 1013722
14:00+24сз324090 0.0 10121253
17:00+22сз3347100 0.0 1011389
20:00+19зсз2364100 0.0 101296
6 июля, ср
ср623:00+16юв1171100 0.1 101321
02:00+13ссв119385 0.5 101319
05:00+13ю009680 0.6 101313
08:00+15юз0192100 0.1 1014187
11:00+17юз1184100 0.4 1013427
14:00+26з124616 0.0 10121207
17:00+20зсз236634 0.2 1012338
20:00+18ссз257391 0.1 1013229
7 июля, чт
чт723:00+16всв1181100 0.1 101434
02:00+16юв128399 0.0 101581
05:00+15ю2584100 0.0 1015239
08:00+17ю2575100 0.0 1016529
11:00+21ююз2457100 0.0 10161223
14:00+23ююз3448100 0.0 10151757
17:00+23юз3447100 0.0 10151629
20:00+19зсз2464100 0.0 1016153
8 июля, пт
пт823:00+16в138099 0.0 1018143
02:00+13вюв12927 0.0 101939
05:00+11юв1196100 0.0 101937
08:00+15ю2474100 0.0 1020510
11:00+21юз2348100 0.0 10191525
14:00+21зсз3347100 0.0 10191517
17:00+20сз235385 0.0 1020821
20:00+17ссв366667 0.0 1020309